TimePST,TemperatureF,Dew PointF,Humidity,Sea Level PressureIn,VisibilityMPH,Wind Direction,Wind SpeedMPH,Gust SpeedMPH,PrecipitationIn,Events,Conditions,WindDirDegrees,DateUTC
12:56 AM,-9.0,-13.0,83,30.69,10.0,East,5.8,-,N/A,,Clear,80,2013-01-05 08:56:00
1:56 AM,-9.9,-14.1,82,30.70,10.0,East,4.6,-,N/A,,Clear,80,2013-01-05 09:56:00
2:56 AM,-9.9,-14.1,82,30.70,10.0,Calm,Calm,-,N/A,,Clear,0,2013-01-05 10:56:00
3:56 AM,-9.9,-14.1,82,30.69,10.0,East,6.9,-,N/A,,Clear,80,2013-01-05 11:56:00
4:56 AM,-11.0,-16.1,78,30.70,10.0,ENE,6.9,-,N/A,,Clear,70,2013-01-05 12:56:00
5:56 AM,-13.0,-17.0,82,30.74,9.0,NE,4.6,-,N/A,,Clear,50,2013-01-05 13:56:00
6:56 AM,-11.9,-17.0,78,30.77,10.0,ENE,6.9,-,N/A,,Clear,70,2013-01-05 14:56:00
7:56 AM,-11.0,-15.0,83,30.78,10.0,East,3.5,-,N/A,,Clear,100,2013-01-05 15:56:00
8:56 AM,-7.1,-11.9,79,30.76,10.0,East,5.8,-,N/A,,Clear,80,2013-01-05 16:56:00
9:56 AM,-2.9,-9.0,75,30.75,10.0,East,4.6,-,N/A,,Clear,90,2013-01-05 17:56:00
10:56 AM,1.9,-5.1,72,30.69,10.0,East,5.8,-,N/A,,Clear,80,2013-01-05 18:56:00
11:56 AM,5.0,-2.0,73,30.64,10.0,East,5.8,-,N/A,,Clear,80,2013-01-05 19:56:00
12:56 PM,9.0,1.0,70,30.60,10.0,East,5.8,-,N/A,,Clear,80,2013-01-05 20:56:00
2:56 PM,12.0,3.9,70,30.55,10.0,East,4.6,-,N/A,,Clear,90,2013-01-05 22:56:00
3:56 PM,10.0,1.9,70,30.54,10.0,East,3.5,-,N/A,,Clear,80,2013-01-05 23:56:00
4:56 PM,8.1,1.0,73,30.54,10.0,ENE,4.6,-,N/A,,Clear,70,2013-01-06 00:56:00
5:56 PM,7.0,-0.0,73,30.54,10.0,ENE,8.1,-,N/A,,Clear,60,2013-01-06 01:56:00
6:56 PM,7.0,1.0,77,30.52,10.0,East,6.9,-,N/A,,Clear,90,2013-01-06 02:56:00
7:56 PM,6.1,1.0,80,30.51,10.0,ENE,6.9,-,N/A,,Clear,70,2013-01-06 03:56:00
8:56 PM,6.1,-0.0,76,30.48,10.0,ENE,4.6,-,N/A,,Clear,60,2013-01-06 04:56:00
9:56 PM,6.1,-0.0,76,30.45,10.0,East,4.6,-,N/A,,Scattered Clouds,80,2013-01-06 05:56:00
10:56 PM,6.1,1.0,80,30.41,10.0,East,4.6,-,N/A,,Mostly Cloudy,80,2013-01-06 06:56:00
11:56 PM,8.1,1.9,76,30.38,10.0,ENE,5.8,-,N/A,,Scattered Clouds,70,2013-01-06 07:56:00